Location: *
(41.7492°S, 135.4150°W)
Time: 21:43:37
(UTC+00:00)

METEOR M2 - Pass Details

Date: 05 July 2022
Orbit: 818 x 827 km, 98.4° (Epoch: 17 August)

Event Time Altitude Azimuth Distance (km) Brightness Sun altitude
Exits shadow 03:10:55 24° 108° (ESE) 1,644 ? -15.8°
Maximum altitude 03:12:09 27° 86° (E) 1,558 ? -16.0°
Drops below altitude 10° 03:16:39 10° 29° (NNE) 2,424 ? -16.8°
Sets 03:19:20 0° 17° (NNE) 3,349 ? -17.3°
